Location: ????
(30.1475°N, 31.1342°E)
Time: 03:39:17
(UTC+00:00)

Cosmos 407 Rocket - Pass Details

Date: 27 September 2022
Orbit: 742 x 786 km, 74.0° (Epoch: 30 November)

Event Time Altitude Azimuth Distance (km) Brightness Sun altitude
Rises 01:51:27 0° 349° (N) 3,260 6.8 -25.5°
Reaches altitude 10° 01:53:53 10° 353° (N) 2,334 6.1 -25.0°
Maximum altitude 01:59:07 57° 72° (ENE) 920 4.1 -23.9°
Drops below altitude 10° 02:04:20 10° 151° (SSE) 2,336 6.2 -22.8°
Sets 02:06:45 0° 155° (SSE) 3,261 6.9 -22.2°
